Location: São Paulo
(23.5507°S, 46.6334°W)
Time: 07:27:17
(UTC-03:00)

Vanguard 3 - Pass Details

Date: 23 February 2026
Orbit: 507 x 3205 km, 33.4° (Epoch: 7 March)

Event Time Altitude Azimuth Distance (km) Brightness Sun altitude
Exits shadow 01:03:24 10° 109° (ESE) 3,531 10.6 -55.0°
Drops below altitude 10° 01:03:32 10° 109° (ESE) 3,578 10.6 -54.9°
Sets 01:07:32 0° 113° (ESE) 4,993 11.5 -54.6°
